WFO RAH Logo

WFO RAH Text Data



RWRRAH
NORTH CAROLINA WEATHER ROUNDUP
NATIONAL WEATHER SERVICE RALEIGH NC
600 AM EST THU JAN 18 2007

NOTE: "FAIR" INDICATES FEW OR NO CLOUDS BELOW 12,000 FEET WITH NO
SIGNIFICANT WEATHER AND/OR OBSTRUCTIONS TO VISIBILITY.

NCZ001-053-055-056-065-067-181200-
WESTERN NORTH CAROLINA
  
CITY           SKY/WX    TMP DP  RH WIND       PRES   REMARKS
ASHEVILLE      MIX PCPN  29  15  56 S6        30.45R WCI  23          
JEFFERSON      CLOUDY    23  10  58 CALM      30.39R                  
HICKORY        CLOUDY    31  15  52 NE8       30.52R WCI  23          
RUTHERFORDTON  RAIN      32  19  59 CALM      30.52R                  
MOUNT AIRY     CLOUDY    27  10  50 NE3       30.51R                  
$$
 
NCZ021-022-025-041-071-084-088-181200-
CENTRAL NORTH CAROLINA
  
CITY           SKY/WX    TMP DP  RH WIND       PRES   REMARKS
CHARLOTTE      FRZ RAIN  30  21  69 N8        30.53R WCI  23          
GREENSBORO     LGTSLEET  29  14  53 NE6       30.55R WCI  23          
WINSTON-SALEM  CLOUDY    29  14  53 NE5       30.56R WCI  24          
RALEIGH-DURHAM LGT SNOW  28  21  74 N3        30.58R                  
FAYETTEVILLE   FRZ RAIN  32  29  88 NE9       30.54R FOG     WCI  24  
$$
 
NCZ011-015-027-028-043-044-047-080-103-181200-
NORTHEASTERN NORTH CAROLINA
  
CITY           SKY/WX    TMP DP  RH WIND       PRES   REMARKS
ROANOKE RAPIDS CLOUDY    29  20  69 N5        30.58R WCI  24          
ROCKY MT-WILSO FRZ RAIN  30  25  80 VRB6      30.58R WCI  24          
GREENVILLE     LGT RAIN  34  23  64 CALM      30.53S                  
WASHINGTON     LGT RAIN  36  30  80 CALM      30.53S                  
ELIZABETH CITY CLOUDY    37  32  82 N8        30.53F WCI  31          
MANTEO         CLOUDY    50  41  71 NE13G21   30.51F                  
CAPE HATTERAS  CLOUDY    50  46  86 NE8       30.47F                  
$$
 
NCZ078-087-090-091-093-098-101-181200-
SOUTHEASTERN NORTH CAROLINA
  
CITY           SKY/WX    TMP DP  RH WIND       PRES   REMARKS
LUMBERTON      MIX PCPN  32  29  88 NE8       30.53F WCI  25          
KINSTON        MIX PCPN  32  30  93 N8        30.55S WCI  25          
KENANSVILLE    LGT RAIN  34  32  93 N7        30.53F WCI  28          
NEW BERN       LGT RAIN  34  30  85 NW6       30.53S WCI  29          
CHERRY POINT   LGT RAIN  39  35  86 N9        30.52R WCI  33          
BEAUFORT       LGT RAIN  42  39  89 NE8       30.49R                  
JACKSONVILLE   CLOUDY    33  30  88 N12       30.52S WCI  24          
WILMINGTON     LGT RAIN  34  30  86 N8        30.50S WCI  27          
$$